カタログに戻る

KINEIS-4A

運用中通信SSO
NORAD 63303·PAYLOAD·🇫🇷 France

打ち上げ Mar 18, 2025 から Rocket Lab Launch Complex 1

Loading…

次のパス (今後24時間)

TLE

最新Source: Space-Track

元期: Sep 14, 2026, 14:26 UTC

1 63303U 25056D   26257.60144396  .00001121  00000-0  18504-3 0  9994
2 63303  97.9208  19.2911 0002004  42.9133 317.2231 14.72284923 80282

AllMySatでKINEIS-4Aをリアルタイム追跡

Download on the App Store